Regional Weather Roundup
Issued by NWS

Home | Current Version | Previous Version | Text Only | Print | Product List | Glossary On
Versions: 1 2 3 4 5 6 7 8 9 10 11 12 13 14 15 16 17 18 19 20 21 22 23 24 25 26 27 28 29 30 31 32 33 34 35 36 37 38 39 40 41 42 43 44 45 46 47 48 49 50
101
ASUS43 KMPX 220010
RWRMN
WEATHER ROUNDUP FOR MINNESOTA
NATIONAL WEATHER SERVICE TWIN CITIES/CHANHASSEN MN
700 PM CDT SAT APR 21 2018


NOTE: "FAIR" INDICATES FEW OR NO CLOUDS BELOW 12,000 FEET WITH NO
SIGNIFICANT WEATHER AND/OR OBSTRUCTIONS TO VISIBILITY. N/A MEANS
CURRENT SKY AND/OR WEATHER CONDITIONS ARE NOT AVAILABLE.

MNZ060>063-068>070-220100-
   Twin Cities Metro

CITY           SKY/WX    TMP DP  RH WIND       PRES   REMARKS
TWIN CITIES    FAIR      58  17  20 VRB3      30.33S
6HR MIN TEMP:  55; 6HR MAX TEMP:  60;

ST PAUL        FAIR      57  21  24 S6        30.33S
CRYSTAL        FAIR      56  16  20 SW6       30.31F
BLAINE         MOSUNNY   57  18  21 CALM      30.32S
LAKEVILLE      FAIR      52  36  54 S5        30.33F
EDEN PRAIRIE   FAIR      56  28  34 S6        30.32S
6HR MIN TEMP:  53; 6HR MAX TEMP:  59;

SOUTH ST PAUL  FAIR      57  31  38 S6        30.32S
LAKE ELMO      FAIR      59  28  31 CALM      30.34S
$$
MNZ001>005-007-008-013>017-022>024-027-028-220100-
   Northwest Minnesota

CITY           SKY/WX    TMP DP  RH WIND       PRES   REMARKS
BEMIDJI        FAIR      58  29  33 SW9       30.27F
HALLOCK        FAIR      61  45  55 S17       30.23F
ROSEAU         FAIR      59  45  58 SW9       30.26S
WARROAD        FAIR      57  45  62 SW8       30.26S
THIEF RVR FALL FAIR      57  42  57 SW9       30.27F
CROOKSTON      FAIR      59  43  55 SW9       30.26F
FOSSTON        FAIR      59  34  38 SW9       30.28S
DETROIT LAKES  FAIR      55  34  44 SW7       30.29S
MOORHEAD       FAIR      59  39  47 S9        30.27S
PARK RAPIDS    FAIR      58  30  34 CALM      30.28S
MAHNOMEN       FAIR      57  37  47 SW9       30.27F
$$
MNZ006-009>011-018-025>026-220100-
   North Central Minnesota

CITY           SKY/WX    TMP DP  RH WIND       PRES   REMARKS
BAUDETTE       FAIR      58  34  40 S8        30.25F
FLAG ISLAND    FAIR      43  28  56 S3        30.25R
INTL FALLS     FAIR      60  27  28 SW8       30.26S
6HR MIN TEMP:  57; 6HR MAX TEMP:  62;

WASKISH        FAIR      55  32  41 CALM      30.27F
BIG FORK       FAIR      55  28  35 S5        30.29F
LONGVILLE      FAIR      57  27  30 CALM      30.29F
GRAND RAPIDS   FAIR      55  22  27 S7        30.31F
CRANE LAKE     FAIR      57  18  21 CALM      30.29F
ORR            FAIR      57  16  19 CALM      30.26F
COOK           FAIR      57  21  24 SW3       30.29S
WALKER         FAIR      55  29  37 CALM      30.29S
$$
MNZ012-019>021-037-220100-
   Northeast Minnesota

CITY           SKY/WX    TMP DP  RH WIND       PRES   REMARKS
DULUTH         FAIR      56  19  23 CALM      30.31F
6HR MIN TEMP:  54; 6HR MAX TEMP:  57;

ELY            FAIR      57  16  19 W6        30.28F
HIBBING        FAIR      56  20  24 S6        30.29S
EVELETH        FAIR      57  19  22 S5        30.30S
DULUTH HARBOR  FAIR      41  30  65 CALM      30.33S
TWO HARBORS    FAIR      59  27  29 SE3       30.30F
SILVER BAY     FAIR      52  18  25 S3        30.31S
GRAND MARAIS     N/A     39  31  72 CALM      30.34S
G MARAIS ARPRT FAIR      48  12  23 S3        30.33F
$$
MNZ029>031-032-039>041-046>048-054>057-064-220100-
   West Central Minnesota

CITY           SKY/WX    TMP DP  RH WIND       PRES   REMARKS
FERGUS FALLS   PTSUNNY   57  39  51 S10       30.27S
WHEATON        SUNNY     55  36  47 S9        30.31S
MORRIS         SUNNY     54  37  54 S8        30.30F
ALEXANDRIA     FAIR      56  33  42 SW8       30.31S
ELBOW LAKE     FAIR      54  38  55 W10       30.31S
WADENA         FAIR      55  34  44 S6        30.29S
GLENWOOD       FAIR      55  34  44 S7        30.32S
APPLETON       SUNNY     54  37  54 S8        30.31F
BENSON         SUNNY     55  34  44 W6        30.33S
ORTONVILLE     SUNNY     55  36  47 S6        30.30S
MADISON        CLOUDY    52  43  71 SE7       30.31F
WILLMAR        FAIR      54  36  50 SE6       30.34F
$$
MNZ033>034-036-042>043-049>051-058-059-220100-
   Central Minnesota

CITY           SKY/WX    TMP DP  RH WIND       PRES   REMARKS
ST CLOUD       FAIR      56  28  34 SE3       30.32S
6HR MIN TEMP:  52; 6HR MAX TEMP:  58;

SAUK CENTRE    FAIR      55  33  43 S6        30.31S
PAYNESVILLE    FAIR      55  34  44 SE6       30.32F
AITKIN         FAIR      52  18  25 SE3       30.30S
PINE RIVER     FAIR      54  28  37 CALM      30.32S
BRAINERD       FAIR      56  28  34 S6        30.31S
STAPLES        FAIR      55  30  38 S6        30.30S
LONG PRAIRIE   FAIR      54  32  43 CALM      30.31S
LITTLE FALLS   FAIR      54  23  30 CALM      30.32S
LITCHFIELD     FAIR      55  32  41 CALM      30.33F
BUFFALO        FAIR      55  25  31 CALM      30.34S
MAPLE LAKE     FAIR      55  34  44 SE3       30.34S
HUTCHINSON     FAIR      54  30  39 CALM      30.34F
$$
MNZ037-044-045-052-053-220100-
   East Central Minnesota

CITY           SKY/WX    TMP DP  RH WIND       PRES   REMARKS
PRINCETON      FAIR      57  25  28 CALM      30.33S
MORA           FAIR      54  23  30 CALM      30.34S
CAMBRIDGE      FAIR      57  34  41 CALM      30.33S
RUSH CITY      FAIR      55  22  27 NW3       30.33S
MOOSE LAKE     FAIR      55  23  28 CALM      30.30S
HINCKLEY       FAIR      55  23  28 CALM      30.32S
CLOQUET        FAIR      55  12  18 SW3       30.31F
MCGREGOR       FAIR      55  10  16 CALM      30.31F
$$
MNZ071>073-080-081-089-090-097-098-220100-
   Southwest Minnesota

CITY           SKY/WX    TMP DP  RH WIND       PRES   REMARKS
MONTEVIDEO     CLOUDY    54  36  50 SW3       30.32F
GRANITE FALLS  CLOUDY    50  41  71 SE5       30.34F
CANBY          CLOUDY    46  37  69 E5        30.32F HAZE
MARSHALL       CLOUDY    44  30  57 SE6       30.33S
REDWOOD FALLS  CLOUDY    48  36  63 CALM      30.32F
OLIVIA         CLOUDY    52  36  54 S5        30.32F
PIPESTONE      CLOUDY   N/A N/A N/A SE6       30.30F
WINDOM         CLOUDY    43  25  49 NE5       30.32S
WORTHINGTON    CLOUDY    45  35  68 E6        30.32R
JACKSON        CLOUDY    39  34  81 CALM      30.32S
TRACY          CLOUDY    44  35  69 SE3       30.32S
SLAYTON        CLOUDY    42  35  73 SE3       30.32S
$$
MNZ065>067-074>077-082>085-091>093-220100-
   South Central Minnesota

CITY           SKY/WX    TMP DP  RH WIND       PRES   REMARKS
MANKATO        CLOUDY    49  38  65 E3        30.34S
NEW ULM        CLOUDY    48  34  57 CALM      30.33S
ST JAMES       MOSUNNY   43  36  75 CALM      30.34S
FAIRMONT       CLOUDY    42  34  73 CALM      30.33S
GLENCOE        FAIR      54  33  43 CALM      30.32F
FARIBAULT      CLOUDY    54  32  43 CALM      30.34F
OWATONNA       PTSUNNY   50  37  62 E3        30.34S
WASECA         CLOUDY    50  37  62 CALM      30.35S
ALBERT LEA     CLOUDY    46  32  57 E3        30.33S
$$
MNZ078>079-086>088-094>096-220100-
   Southeast Minnesota

CITY           SKY/WX    TMP DP  RH WIND       PRES   REMARKS
ROCHESTER      CLOUDY    49  35  58 CALM      30.34F
6HR MIN TEMP:  47; 6HR MAX TEMP:  52;

RED WING       FAIR      57  27  30 SW6       30.33S
STANTON        FAIR      54  37  52 S5        30.33S
DODGE CENTER   CLOUDY    48  37  66 E5        30.34S
WINONA         MOCLDY    54  30  40 CALM      30.32F
AUSTIN         CLOUDY    46  37  71 E3        30.33S
PRESTON        CLOUDY    51  30  45 E3        30.34S
$$
ABBREVIATIONS USED IN REMARKS
   TC - TEMPERATURES IN CELSIUS
  WCI - WIND CHILL INDEX
   HX - HEAT INDEX
  VSB - VISIBILITY
$$




USA.gov is the U.S. government's official web portal to all federal, state and local government web resources and services.